Regional Weather Roundup
Issued by NWS

Home | Current Version | Previous Version | Graphics & Text | Print | Product List | Glossary On
Versions: 1 2 3 4 5 6 7 8 9 10 11 12 13 14 15 16 17 18 19 20 21 22 23 24 25 26 27 28 29 30 31 32 33 34 35 36 37 38 39 40 41 42 43 44 45 46 47 48 49 50
000
ASUS43 KMPX 270201
RWRMN
WEATHER ROUNDUP FOR MINNESOTA
NATIONAL WEATHER SERVICE TWIN CITIES/CHANHASSEN MN
900 PM CDT WED JUL 26 2017


NOTE: "FAIR" INDICATES FEW OR NO CLOUDS BELOW 12,000 FEET WITH NO
SIGNIFICANT WEATHER AND/OR OBSTRUCTIONS TO VISIBILITY. N/A MEANS
CURRENT SKY AND/OR WEATHER CONDITIONS ARE NOT AVAILABLE.

MNZ060>063-068>070-270300-
   Twin Cities Metro

CITY           SKY/WX    TMP DP  RH WIND       PRES   REMARKS
TWIN CITIES    PTCLDY    77  60  55 N7        30.00R
ST PAUL        CLEAR     76  63  64 N5        29.99R
CRYSTAL        CLEAR     75  59  57 NW5       29.99R
BLAINE         PTCLDY    77  63  61 NW5       30.00R
LAKEVILLE      CLEAR     70  64  83 NW3       30.01R
EDEN PRAIRIE   CLEAR     77  61  57 N3        29.99R
SOUTH ST PAUL  CLEAR     77  60  55 N3        29.99R
LAKE ELMO      FAIR      73  64  73 CALM      30.01R
$$
MNZ001>005-007-008-013>017-022>024-027-028-270300-
   Northwest Minnesota

CITY           SKY/WX    TMP DP  RH WIND       PRES   REMARKS
BEMIDJI        PTCLDY    70  59  66 NW6       30.05S
HALLOCK        CLEAR     72  64  78 NW5       30.06S
ROSEAU         CLEAR     72  63  73 W6        30.05S
WARROAD        CLEAR     73  63  68 W5        30.05R
CROOKSTON      CLEAR     70  63  78 N5        30.07R
FOSSTON        CLEAR     68  59  73 CALM      30.07S
DETROIT LAKES  PTCLDY    70  63  78 NW5       30.08R
MOORHEAD       CLEAR     70  63  78 CALM      30.07R
PARK RAPIDS    CLEAR     71  60  68 NW5       30.06R
MAHNOMEN       FAIR      69  61  75 NW6       30.06S
$$
MNZ006-009>011-018-025>026-270300-
   North Central Minnesota

CITY           SKY/WX    TMP DP  RH WIND       PRES   REMARKS
BAUDETTE       CLEAR     69  63  81 CALM      30.03R
FLAG ISLAND    CLEAR     75  63  64 NW5       30.02S
INTL FALLS     CLEAR     65  61  87 CALM      30.02R
WASKISH        CLEAR     73  61  64 N3        30.04S
BIG FORK       CLEAR     64  61  88 CALM      30.05R
LONGVILLE      CLEAR     68  61  77 CALM      30.05R
GRAND RAPIDS   CLEAR     67  61  81 CALM      30.05R
CRANE LAKE     CLEAR     63  61  94 CALM      30.03R
ORR            CLEAR     64  57  77 CALM      30.01R
COOK             N/A     66  61  82 CALM      30.03R
WALKER         FAIR      69  59  70 NW5       30.05S
$$
MNZ012-019>021-037-270300-
   Northeast Minnesota

CITY           SKY/WX    TMP DP  RH WIND       PRES   REMARKS
DULUTH         PTCLDY    70  61  73 NW5       30.01R
ELY            CLEAR     68  59  73 CALM      30.02R
HIBBING        CLEAR     66  59  78 NW3       30.02R
EVELETH        CLEAR     73  52  47 N3        30.04R
DULUTH HARBOR  PTCLDY    79  64  61 NW5       29.98R
TWO HARBORS    CLEAR     73  64  73 CALM      29.98R
SILVER BAY     CLEAR     70  61  73 CALM      29.97R
GRAND MARAIS     N/A     67  62  84 CALM      29.95R
G MARAIS ARPRT CLEAR     64  54  68 CALM      30.02R
$$
MNZ029>031-032-039>041-046>048-054>057-064-270300-
   West Central Minnesota

CITY           SKY/WX    TMP DP  RH WIND       PRES   REMARKS
FERGUS FALLS   CLEAR     72  63  73 N6        30.05R
WHEATON        PTCLDY    73  63  68 CALM      30.07S
MORRIS         CLEAR     73  64  73 N5        30.05R
ALEXANDRIA     PTCLDY    72  62  71 NW6       30.07R
ELBOW LAKE     FAIR      74  63  69 NW6       30.06S
WADENA         CLEAR     70  61  73 NW3       30.05S
GLENWOOD       PTCLDY    70  63  78 NW3       30.07R
APPLETON       CLEAR     73  63  68 CALM      30.05S
BENSON         CLEAR     70  63  78 N5        30.06S
ORTONVILLE     CLEAR     72  64  78 MISG      30.06R
MADISON        CLEAR     73  63  68 N6        30.05S
WILLMAR        FAIR      72  64  78 NW6       30.05S
$$
MNZ033>034-036-042>043-049>051-058-059-270300-
   Central Minnesota

CITY           SKY/WX    TMP DP  RH WIND       PRES   REMARKS
ST CLOUD       PTCLDY    72  64  76 NW5       30.01S
SAUK CENTRE    FAIR      73  63  70 NW7       30.05R
PAYNESVILLE    PTCLDY    71  63  75 CALM      30.05R
AITKIN         CLEAR     64  61  88 CALM      30.02R
PINE RIVER     CLEAR     72  61  68 N5        30.07S
BRAINERD       CLEAR     73  61  65 CALM      30.03S
STAPLES        CLEAR     72  59  64 CALM      30.05R
LONG PRAIRIE   FAIR      72  61  68 W6        30.05S
LITTLE FALLS   PTCLDY    72  61  68 CALM      30.04R
LITCHFIELD     CLEAR     75  64  69 NW7       30.04R
BUFFALO        CLEAR     75  60  59 CALM      30.02R
MAPLE LAKE     CLEAR     73  64  72 W3        30.03R
HUTCHINSON     CLEAR     72  65  80 NW5       30.04R
$$
MNZ037-044-045-052-053-270300-
   East Central Minnesota

CITY           SKY/WX    TMP DP  RH WIND       PRES   REMARKS
PRINCETON      PTCLDY    73  64  73 CALM      30.02R
MORA           CLEAR     68  61  77 CALM      30.03R
CAMBRIDGE      PTCLDY    73  61  64 CALM      30.00R
RUSH CITY      CLEAR     69  62  77 NW3       30.01R
MOOSE LAKE     CLEAR     68  63  83 NW3       30.00R
HINCKLEY       FAIR      72  64  78 CALM      30.01R
CLOQUET        CLEAR     72  57  60 NW5       30.01S
MCGREGOR       CLEAR     72  59  64 NW3       30.03R
$$
MNZ071>073-080-081-089-090-097-098-270300-
   Southwest Minnesota

CITY           SKY/WX    TMP DP  RH WIND       PRES   REMARKS
MONTEVIDEO     CLEAR     73  61  64 N7        30.05S
CANBY          CLEAR     74  62  64 CALM      30.07S
MARSHALL       CLEAR     72  65  78 N6        30.05S
REDWOOD FALLS  CLEAR     74  62  66 N6        30.02S
OLIVIA         CLEAR     72  61  68 NW6       30.03S
PIPESTONE      CLEAR     73  63  68 NE3       30.08S
WINDOM         CLEAR     72  64  78 CALM      30.05R
WORTHINGTON    CLEAR     69  62  78 N8        30.07R
JACKSON        CLEAR     68  61  77 CALM      30.06R
TRACY          CLEAR     71  66  83 NW5       30.06R
SLAYTON        HVY RAIN  72  62  71 NW6       30.07S
$$
MNZ065>067-074>077-082>085-091>093-270300-
   South Central Minnesota

CITY           SKY/WX    TMP DP  RH WIND       PRES   REMARKS
MANKATO        CLEAR     73  64  73 NW5       30.02R
NEW ULM        CLEAR     73  64  73 NW5       30.02R
ST JAMES       CLEAR     70  64  83 NW5       30.04R
FAIRMONT       CLEAR     70  65  84 N5        30.03R
GLENCOE        CLEAR     72  69  89 CALM      30.01R
FARIBAULT      CLEAR     72  64  78 NW5       30.01R
OWATONNA       CLEAR     72  66  83 CALM      30.01S
WASECA         CLEAR     70  66  88 CALM      30.03R
ALBERT LEA     CLEAR     73  66  78 N6        30.01R
$$
MNZ078>079-086>088-094>096-270300-
   Southeast Minnesota

CITY           SKY/WX    TMP DP  RH WIND       PRES   REMARKS
ROCHESTER      PTCLDY    73  70  90 N7        30.01R
RED WING       CLEAR     70  64  83 CALM      29.98R
STANTON        PTCLDY    72  67  83 CALM      29.99R
DODGE CENTER   CLEAR     72  66  83 N3        30.02R
WINONA         MOCLDY    73  70  88 CALM      29.98R
AUSTIN         PTCLDY    73  68  83 N5        30.00R
PRESTON        PTCLDY    73  68  86 CALM      30.01R
$$
ABBREVIATIONS USED IN REMARKS
   TC - TEMPERATURES IN CELSIUS
  WCI - WIND CHILL INDEX
   HX - HEAT INDEX
  VSB - VISIBILITY
$$




USA.gov is the U.S. government's official web portal to all federal, state and local government web resources and services.